ZKJFL NZRO-NZDN

Flight info

Callsign ZKJFL
Flight time N/A
Altitude 40000
Route ISGIT H310 AP H313 OH J142 WN H221 CH Y714 IDARA Y814 MIPAK
Aircraft PC24/M-SBDGIJ1RWY/LB2

Departure

Time 2026-04-16 02:11
Airport Rotorua Regional Airport (NZRO)

Arrival

Time N/A
Airport Dunedin International Airport (NZDN)
Time Latitude Longitude Altitude Speed Heading
2026-04-16 01:57 -38.11072 176.31666 943 ft 0 kts 26°
2026-04-16 02:06 -38.11069 176.31666 943 ft 1 kts
2026-04-16 02:06 -38.11064 176.31657 945 ft 3 kts 304°
2026-04-16 02:06 -38.11039 176.31615 942 ft 8 kts 329°
2026-04-16 02:07 -38.10962 176.31630 943 ft 13 kts
2026-04-16 02:07 -38.10911 176.31574 945 ft 8 kts 300°
2026-04-16 02:07 -38.10877 176.31543 944 ft 5 kts 13°
2026-04-16 02:07 -38.10854 176.31556 945 ft 3 kts 24°
2026-04-16 02:08 -38.10847 176.31560 942 ft 2 kts 24°
2026-04-16 02:08 -38.10826 176.31571 945 ft 5 kts 22°
2026-04-16 02:08 -38.10755 176.31613 946 ft 16 kts 24°
2026-04-16 02:08 -38.10636 176.31684 943 ft 19 kts 25°
2026-04-16 02:09 -38.10522 176.31752 944 ft 17 kts 26°
2026-04-16 02:09 -38.10409 176.31818 943 ft 20 kts 25°
2026-04-16 02:09 -38.10276 176.31897 945 ft 21 kts 25°
2026-04-16 02:09 -38.10151 176.31972 946 ft 19 kts 25°
2026-04-16 02:10 -38.10061 176.32027 947 ft 6 kts 321°
2026-04-16 02:10 -38.10065 176.32015 946 ft 0 kts 202°
2026-04-16 02:10 -38.10078 176.32012 946 ft 6 kts 192°
2026-04-16 02:10 -38.10099 176.32003 946 ft 0 kts 205°
2026-04-16 02:11 -38.10158 176.31967 946 ft 39 kts 206°
2026-04-16 02:11 -38.10631 176.31646 948 ft 112 kts 217°
2026-04-16 02:11 -38.11483 176.31155 1116 ft 156 kts 207°
2026-04-16 02:11 -38.12501 176.30560 1788 ft 163 kts 214°
2026-04-16 02:12 -38.13353 176.29705 2753 ft 153 kts 231°
2026-04-16 02:12 -38.14084 176.28690 3534 ft 157 kts 228°
2026-04-16 02:12 -38.14928 176.27698 4058 ft 179 kts 227°
2026-04-16 02:12 -38.15900 176.26584 4007 ft 182 kts 225°
2026-04-16 02:13 -38.16815 176.25566 3979 ft 170 kts 226°
2026-04-16 02:13 -38.17523 176.24438 3985 ft 162 kts 247°
2026-04-16 02:13 -38.18050 176.23172 4062 ft 167 kts 235°
2026-04-16 02:13 -38.18740 176.21938 4360 ft 181 kts 239°
2026-04-16 02:14 -38.19828 176.21076 4841 ft 199 kts 193°
2026-04-16 02:14 -38.21236 176.21073 5391 ft 203 kts 190°
2026-04-16 02:14 -38.22606 176.20867 5979 ft 194 kts 199°
2026-04-16 02:14 -38.23943 176.20509 6745 ft 194 kts 201°
2026-04-16 02:15 -38.25269 176.20159 7688 ft 196 kts 201°
2026-04-16 02:15 -38.26619 176.19807 8598 ft 200 kts 201°
2026-04-16 02:15 -38.27997 176.19452 9506 ft 204 kts 202°
2026-04-16 02:15 -38.29403 176.19090 10310 ft 208 kts 202°
2026-04-16 02:16 -38.30832 176.18721 11120 ft 211 kts 203°
2026-04-16 02:16 -38.32281 176.18347 11949 ft 213 kts 203°
2026-04-16 02:16 -38.33747 176.17969 12764 ft 216 kts 203°
2026-04-16 02:16 -38.35241 176.17582 13535 ft 222 kts 204°
2026-04-16 02:17 -38.36763 176.17188 14302 ft 224 kts 204°
2026-04-16 02:17 -38.38302 176.16792 15065 ft 227 kts 204°
2026-04-16 02:17 -38.39862 176.16387 15844 ft 230 kts 204°
2026-04-16 02:17 -38.41443 176.15978 16619 ft 234 kts 204°
2026-04-16 02:18 -38.43025 176.15568 17389 ft 237 kts 204°
2026-04-16 02:18 -38.44673 176.15142 18160 ft 240 kts 204°
2026-04-16 02:18 -38.46320 176.14715 18826 ft 243 kts 204°
2026-04-16 02:18 -38.47981 176.14284 19514 ft 244 kts 204°
2026-04-16 02:19 -38.49659 176.13849 20191 ft 247 kts 204°
2026-04-16 02:19 -38.51351 176.13410 20882 ft 249 kts 204°
2026-04-16 02:19 -38.53041 176.12972 21547 ft 252 kts 204°
2026-04-16 02:19 -38.54769 176.12521 22210 ft 255 kts 204°
2026-04-16 02:20 -38.56517 176.12068 22867 ft 258 kts 204°
2026-04-16 02:20 -38.58282 176.11608 23501 ft 260 kts 203°
2026-04-16 02:20 -38.60065 176.11145 24080 ft 262 kts 204°
2026-04-16 02:20 -38.61857 176.10678 24660 ft 264 kts 204°
2026-04-16 02:21 -38.63664 176.10209 25210 ft 266 kts 204°
2026-04-16 02:21 -38.65485 176.09732 25748 ft 269 kts 203°
2026-04-16 02:21 -38.67325 176.09254 26290 ft 271 kts 203°
2026-04-16 02:21 -38.69176 176.08771 26820 ft 273 kts 203°
2026-04-16 02:22 -38.71046 176.08282 27341 ft 275 kts 203°
2026-04-16 02:22 -38.72934 176.07789 27857 ft 278 kts 203°
2026-04-16 02:22 -38.74806 176.07210 28348 ft 274 kts 209°
2026-04-16 02:22 -38.76593 176.06381 28843 ft 275 kts 210°
2026-04-16 02:23 -38.78404 176.05560 29324 ft 277 kts 210°
2026-04-16 02:23 -38.80232 176.04735 29798 ft 279 kts 210°
2026-04-16 02:23 -38.82072 176.03896 30209 ft 282 kts 210°
2026-04-16 02:23 -38.83924 176.03046 30651 ft 284 kts 210°
2026-04-16 02:24 -38.85799 176.02189 31032 ft 287 kts 210°
2026-04-16 02:24 -38.87689 176.01327 31407 ft 289 kts 210°
2026-04-16 02:24 -38.89593 176.00455 31766 ft 292 kts 210°
2026-04-16 02:24 -38.91512 175.99578 32125 ft 294 kts 210°
2026-04-16 02:25 -38.93420 175.98703 32472 ft 296 kts 209°
2026-04-16 02:25 -38.95368 175.97810 32813 ft 299 kts 209°
2026-04-16 02:25 -38.97333 175.96911 33155 ft 301 kts 209°
2026-04-16 02:25 -38.99311 175.96003 33468 ft 303 kts 209°
2026-04-16 02:26 -39.01305 175.95088 33801 ft 305 kts 209°
2026-04-16 02:26 -39.03311 175.94166 34076 ft 307 kts 209°
2026-04-16 02:26 -39.05331 175.93238 34340 ft 310 kts 209°
2026-04-16 02:26 -39.07368 175.92301 34592 ft 312 kts 209°
2026-04-16 02:27 -39.09420 175.91358 34874 ft 313 kts 209°
2026-04-16 02:27 -39.11471 175.90413 35179 ft 314 kts 208°
2026-04-16 02:27 -39.13525 175.89468 35482 ft 314 kts 209°
2026-04-16 02:27 -39.15579 175.88522 35805 ft 314 kts 209°
2026-04-16 02:28 -39.17633 175.87574 36118 ft 313 kts 209°
2026-04-16 02:28 -39.19684 175.86627 36419 ft 313 kts 209°
2026-04-16 02:28 -39.21738 175.85678 36731 ft 314 kts 209°
2026-04-16 02:28 -39.23793 175.84729 37051 ft 314 kts 209°
2026-04-16 02:29 -39.25849 175.83780 37378 ft 314 kts 209°
2026-04-16 02:29 -39.27903 175.82829 37713 ft 314 kts 209°
2026-04-16 02:29 -39.29956 175.81881 38043 ft 313 kts 209°
2026-04-16 02:29 -39.32003 175.80933 38349 ft 313 kts 209°
2026-04-16 02:30 -39.34054 175.79981 38553 ft 314 kts 209°
2026-04-16 02:30 -39.36119 175.79024 38727 ft 316 kts 208°
2026-04-16 02:30 -39.38164 175.78077 38977 ft 316 kts 208°
2026-04-16 02:30 -39.40229 175.77119 39233 ft 315 kts 208°
2026-04-16 02:31 -39.42292 175.76161 39479 ft 315 kts 208°
2026-04-16 02:31 -39.44354 175.75202 39714 ft 315 kts 208°
2026-04-16 02:31 -39.48524 175.73260 39779 ft 319 kts 208°
2026-04-16 02:32 -39.52653 175.71344 39795 ft 312 kts 207°
2026-04-16 02:32 -39.56026 175.69766 39790 ft 310 kts 208°
2026-04-16 02:33 -39.60099 175.67864 39790 ft 313 kts 207°
2026-04-16 02:33 -39.64206 175.65948 39798 ft 315 kts 207°
2026-04-16 02:34 -39.68339 175.64015 39792 ft 316 kts 207°
2026-04-16 02:34 -39.72454 175.62090 39824 ft 314 kts 207°
2026-04-16 02:35 -39.76541 175.60177 39787 ft 308 kts 207°
2026-04-16 02:35 -39.80557 175.58288 39769 ft 308 kts 207°
2026-04-16 02:36 -39.84609 175.56384 39785 ft 311 kts 207°
2026-04-16 02:36 -39.88698 175.54462 39786 ft 313 kts 207°
2026-04-16 02:37 -39.92784 175.52538 39782 ft 311 kts 207°
2026-04-16 02:37 -39.96851 175.50619 39772 ft 310 kts 208°
2026-04-16 02:38 -40.00869 175.48725 39766 ft 305 kts 208°
2026-04-16 02:38 -40.04867 175.46830 39759 ft 307 kts 208°
2026-04-16 02:39 -40.08906 175.44918 39755 ft 310 kts 208°
2026-04-16 02:39 -40.12974 175.42991 39754 ft 311 kts 208°
2026-04-16 02:40 -40.16983 175.41091 39770 ft 305 kts 208°
2026-04-16 02:40 -40.20943 175.39209 39738 ft 301 kts 208°
2026-04-16 02:41 -40.24856 175.37248 39743 ft 302 kts 210°
2026-04-16 02:41 -40.28804 175.35263 39753 ft 305 kts 209°
2026-04-16 02:42 -40.32781 175.33269 39755 ft 306 kts 209°
2026-04-16 02:42 -40.36741 175.31277 39750 ft 304 kts 209°
2026-04-16 02:43 -40.40680 175.29292 39743 ft 303 kts 210°
2026-04-16 02:43 -40.44592 175.27321 39743 ft 300 kts 210°
2026-04-16 02:44 -40.46534 175.26341 39742 ft 299 kts 210°
2026-04-16 02:44 -40.48479 175.25357 39731 ft 300 kts 210°
2026-04-16 02:44 -40.52389 175.23381 39736 ft 302 kts 210°
2026-04-16 02:45 -40.56316 175.21394 39736 ft 303 kts 210°
2026-04-16 02:45 -40.60308 175.19365 39744 ft 315 kts 209°
2026-04-16 02:46 -40.64489 175.17244 39737 ft 329 kts 209°
2026-04-16 02:46 -40.68779 175.15070 39729 ft 334 kts 209°
2026-04-16 02:47 -40.73096 175.12875 39728 ft 331 kts 209°
2026-04-16 02:47 -40.77383 175.10689 39728 ft 329 kts 209°
2026-04-16 02:48 -40.81649 175.08513 39734 ft 329 kts 210°
2026-04-16 02:48 -40.85922 175.06329 39728 ft 329 kts 210°
2026-04-16 02:49 -40.90196 175.04142 39720 ft 330 kts 210°
2026-04-16 02:49 -40.94414 175.01984 39712 ft 322 kts 210°
2026-04-16 02:50 -40.98588 174.99838 39701 ft 322 kts 210°
2026-04-16 02:50 -41.02748 174.97702 39730 ft 323 kts 210°
2026-04-16 02:51 -41.06966 174.95531 39688 ft 327 kts 210°
2026-04-16 02:51 -41.11211 174.93345 39675 ft 327 kts 210°
2026-04-16 02:52 -41.15442 174.91163 39661 ft 325 kts 210°
2026-04-16 02:52 -41.19653 174.88987 39650 ft 325 kts 210°
2026-04-16 02:53 -41.23857 174.86813 39673 ft 324 kts 210°
2026-04-16 02:53 -41.28068 174.84630 39643 ft 325 kts 210°
2026-04-16 02:54 -41.32284 174.82441 39640 ft 324 kts 211°
2026-04-16 02:54 -41.34247 174.81095 39643 ft 311 kts 220°
2026-04-16 02:54 -41.35939 174.79454 39623 ft 292 kts 225°
2026-04-16 02:55 -41.37513 174.77857 39621 ft 277 kts 224°
2026-04-16 02:55 -41.39014 174.76345 39617 ft 265 kts 225°
2026-04-16 02:55 -41.40453 174.74882 39621 ft 258 kts 225°
2026-04-16 02:55 -41.41892 174.73406 39637 ft 265 kts 225°
2026-04-16 02:56 -41.43379 174.71888 39651 ft 272 kts 225°
2026-04-16 02:56 -41.44900 174.70346 39657 ft 278 kts 224°
2026-04-16 02:56 -41.46438 174.68786 39652 ft 277 kts 224°
2026-04-16 02:56 -41.47964 174.67235 39652 ft 275 kts 224°
2026-04-16 02:57 -41.49477 174.65693 39653 ft 272 kts 225°
2026-04-16 02:57 -41.50970 174.64170 39651 ft 268 kts 225°
2026-04-16 02:57 -41.52446 174.62664 39650 ft 266 kts 225°
2026-04-16 02:57 -41.53918 174.61161 39652 ft 267 kts 225°
2026-04-16 02:58 -41.55396 174.59648 39652 ft 269 kts 225°
2026-04-16 02:58 -41.56883 174.58129 39649 ft 270 kts 225°
2026-04-16 02:58 -41.58378 174.56601 39653 ft 271 kts 225°
2026-04-16 02:58 -41.59879 174.55065 39658 ft 272 kts 225°
2026-04-16 02:59 -41.61385 174.53524 39656 ft 273 kts 225°
2026-04-16 02:59 -41.62886 174.51987 39654 ft 271 kts 225°
2026-04-16 02:59 -41.64381 174.50456 39655 ft 270 kts 225°
2026-04-16 02:59 -41.65871 174.48926 39639 ft 271 kts 225°
2026-04-16 03:00 -41.67363 174.47395 39638 ft 270 kts 225°
2026-04-16 03:00 -41.68852 174.45866 39638 ft 270 kts 225°
2026-04-16 03:00 -41.70339 174.44338 39638 ft 270 kts 225°
2026-04-16 03:00 -41.71828 174.42808 39638 ft 270 kts 225°
2026-04-16 03:01 -41.73318 174.41275 39631 ft 270 kts 225°
2026-04-16 03:01 -41.74809 174.39739 39632 ft 271 kts 225°
2026-04-16 03:01 -41.76303 174.38201 39633 ft 271 kts 225°
2026-04-16 03:01 -41.77798 174.36661 39634 ft 271 kts 225°
2026-04-16 03:02 -41.79292 174.35119 39635 ft 271 kts 225°
2026-04-16 03:02 -41.80768 174.33595 39631 ft 272 kts 225°
2026-04-16 03:02 -41.82267 174.32049 39632 ft 272 kts 225°
2026-04-16 03:02 -41.83764 174.30501 39634 ft 272 kts 225°
2026-04-16 03:03 -41.85264 174.28950 39636 ft 273 kts 225°
2026-04-16 03:03 -41.86768 174.27394 39635 ft 272 kts 225°
2026-04-16 03:03 -41.88266 174.25846 39635 ft 271 kts 225°
2026-04-16 03:03 -41.89757 174.24300 39628 ft 271 kts 225°
2026-04-16 03:04 -41.91245 174.22758 39625 ft 270 kts 225°
2026-04-16 03:04 -41.92731 174.21218 39623 ft 269 kts 225°
2026-04-16 03:04 -41.94211 174.19682 39621 ft 269 kts 225°
2026-04-16 03:04 -41.95689 174.18148 39619 ft 268 kts 225°
2026-04-16 03:05 -41.97163 174.16617 39614 ft 268 kts 225°
2026-04-16 03:05 -41.98634 174.15087 39617 ft 267 kts 225°
2026-04-16 03:05 -42.00107 174.13556 39617 ft 268 kts 225°
2026-04-16 03:05 -42.01586 174.12014 39621 ft 270 kts 225°
2026-04-16 03:06 -42.03072 174.10468 39622 ft 271 kts 225°
2026-04-16 03:06 -42.04563 174.08915 39630 ft 272 kts 225°
2026-04-16 03:06 -42.07580 174.05768 39625 ft 277 kts 225°
2026-04-16 03:07 -42.09104 174.04176 39631 ft 278 kts 225°
2026-04-16 03:07 -42.10634 174.02581 39629 ft 277 kts 225°
2026-04-16 03:07 -42.12156 174.00991 39628 ft 276 kts 225°
2026-04-16 03:07 -42.13651 173.99427 39624 ft 275 kts 225°
2026-04-16 03:08 -42.15159 173.97849 39616 ft 274 kts 225°
2026-04-16 03:08 -42.16661 173.96275 39612 ft 273 kts 225°
2026-04-16 03:08 -42.18157 173.94709 39608 ft 272 kts 225°
2026-04-16 03:08 -42.19653 173.93140 39611 ft 273 kts 225°
2026-04-16 03:09 -42.21152 173.91566 39613 ft 274 kts 225°
2026-04-16 03:09 -42.22656 173.89988 39621 ft 274 kts 224°
2026-04-16 03:09 -42.24168 173.88398 39620 ft 278 kts 224°
2026-04-16 03:09 -42.25707 173.86779 39623 ft 282 kts 224°
2026-04-16 03:10 -42.27253 173.85157 39630 ft 281 kts 224°
2026-04-16 03:10 -42.28786 173.83545 39626 ft 279 kts 224°
2026-04-16 03:10 -42.30312 173.81939 39621 ft 277 kts 224°
2026-04-16 03:10 -42.31824 173.80345 39615 ft 275 kts 224°
2026-04-16 03:11 -42.33335 173.78751 39613 ft 275 kts 224°
2026-04-16 03:11 -42.34849 173.77152 39614 ft 277 kts 224°
2026-04-16 03:11 -42.36371 173.75545 39618 ft 278 kts 224°
2026-04-16 03:11 -42.37902 173.73930 39623 ft 280 kts 224°
2026-04-16 03:12 -42.39437 173.72306 39631 ft 281 kts 224°
2026-04-16 03:12 -42.40958 173.70698 39632 ft 281 kts 224°
2026-04-16 03:12 -42.42496 173.69071 39628 ft 280 kts 224°
2026-04-16 03:12 -42.44024 173.67441 39638 ft 279 kts 225°
2026-04-16 03:13 -42.45545 173.65809 39615 ft 279 kts 224°
2026-04-16 03:13 -42.47064 173.64184 39612 ft 278 kts 224°
2026-04-16 03:13 -42.48577 173.62566 39609 ft 277 kts 224°
2026-04-16 03:13 -42.50088 173.60948 39612 ft 277 kts 224°
2026-04-16 03:14 -42.51605 173.59322 39618 ft 278 kts 224°
2026-04-16 03:14 -42.53124 173.57692 39612 ft 279 kts 224°
2026-04-16 03:14 -42.54651 173.56056 39616 ft 280 kts 224°
2026-04-16 03:14 -42.56179 173.54415 39618 ft 281 kts 224°
2026-04-16 03:15 -42.57712 173.52769 39606 ft 281 kts 224°
2026-04-16 03:15 -42.59240 173.51127 39619 ft 280 kts 224°
2026-04-16 03:15 -42.60765 173.49488 39609 ft 279 kts 224°
2026-04-16 03:15 -42.62285 173.47851 39607 ft 278 kts 224°
2026-04-16 03:16 -42.63801 173.46219 39608 ft 278 kts 224°
2026-04-16 03:16 -42.65312 173.44589 39609 ft 277 kts 224°
2026-04-16 03:16 -42.66822 173.42962 39607 ft 277 kts 224°
2026-04-16 03:16 -42.68324 173.41341 39606 ft 276 kts 224°
2026-04-16 03:17 -42.69825 173.39720 39604 ft 275 kts 224°
2026-04-16 03:17 -42.71323 173.38101 39601 ft 275 kts 224°
2026-04-16 03:17 -42.72826 173.36475 39602 ft 277 kts 224°
2026-04-16 03:17 -42.74339 173.34840 39611 ft 279 kts 224°
2026-04-16 03:18 -42.75841 173.33213 39621 ft 281 kts 224°
2026-04-16 03:18 -42.77369 173.31559 39619 ft 281 kts 224°
2026-04-16 03:18 -42.78893 173.29908 39623 ft 279 kts 224°
2026-04-16 03:18 -42.80407 173.28267 39619 ft 277 kts 224°
2026-04-16 03:19 -42.81912 173.26633 39611 ft 276 kts 224°
2026-04-16 03:19 -42.83411 173.25004 39607 ft 277 kts 224°
2026-04-16 03:19 -42.84914 173.23370 39613 ft 277 kts 224°
2026-04-16 03:19 -42.86417 173.21736 39611 ft 277 kts 224°
2026-04-16 03:20 -42.87925 173.20097 39619 ft 277 kts 224°
2026-04-16 03:20 -42.89430 173.18458 39616 ft 277 kts 224°
2026-04-16 03:20 -42.90934 173.16820 39608 ft 277 kts 224°
2026-04-16 03:20 -42.92440 173.15176 39595 ft 277 kts 224°
2026-04-16 03:21 -42.93946 173.13534 39610 ft 277 kts 224°
2026-04-16 03:21 -42.95450 173.11894 39613 ft 277 kts 224°
2026-04-16 03:21 -42.96952 173.10253 39612 ft 277 kts 224°
2026-04-16 03:21 -42.98454 173.08611 39606 ft 276 kts 224°
2026-04-16 03:22 -42.99955 173.06975 39605 ft 276 kts 223°
2026-04-16 03:22 -43.01457 173.05344 39602 ft 275 kts 224°
2026-04-16 03:22 -43.02955 173.03712 39605 ft 276 kts 224°
2026-04-16 03:22 -43.04458 173.02072 39605 ft 276 kts 224°
2026-04-16 03:23 -43.05959 173.00436 39605 ft 276 kts 224°
2026-04-16 03:23 -43.07437 172.98822 39605 ft 276 kts 224°
2026-04-16 03:23 -43.08935 172.97186 39606 ft 275 kts 224°
2026-04-16 03:23 -43.10432 172.95551 39603 ft 275 kts 224°
2026-04-16 03:24 -43.11925 172.93918 39604 ft 275 kts 224°
2026-04-16 03:24 -43.13419 172.92284 39595 ft 274 kts 224°
2026-04-16 03:24 -43.14908 172.90653 39599 ft 274 kts 224°
2026-04-16 03:24 -43.16396 172.89022 39593 ft 274 kts 224°
2026-04-16 03:25 -43.17882 172.87394 39591 ft 274 kts 224°
2026-04-16 03:25 -43.19367 172.85764 39593 ft 273 kts 224°
2026-04-16 03:25 -43.20852 172.84134 39605 ft 274 kts 224°
2026-04-16 03:25 -43.22348 172.82489 39605 ft 277 kts 224°
2026-04-16 03:26 -43.23858 172.80830 39599 ft 280 kts 224°
2026-04-16 03:26 -43.25381 172.79154 39597 ft 281 kts 224°
2026-04-16 03:26 -43.26906 172.77478 39590 ft 280 kts 224°
2026-04-16 03:26 -43.27913 172.76370 39587 ft 279 kts 224°
2026-04-16 03:27 -43.29423 172.74706 39578 ft 278 kts 224°
2026-04-16 03:27 -43.30928 172.73047 39571 ft 277 kts 224°
2026-04-16 03:27 -43.32425 172.71394 39564 ft 276 kts 224°
2026-04-16 03:27 -43.34403 172.69210 39563 ft 275 kts 224°
2026-04-16 03:28 -43.35412 172.68096 39561 ft 276 kts 224°
2026-04-16 03:28 -43.36913 172.66435 39561 ft 277 kts 224°
2026-04-16 03:28 -43.38418 172.64771 39561 ft 278 kts 224°
2026-04-16 03:28 -43.39930 172.63096 39586 ft 280 kts 224°
2026-04-16 03:29 -43.41457 172.61406 39559 ft 283 kts 224°
2026-04-16 03:29 -43.42990 172.59706 39562 ft 284 kts 224°
2026-04-16 03:29 -43.44533 172.57994 39562 ft 285 kts 224°
2026-04-16 03:29 -43.46072 172.56289 39562 ft 283 kts 224°
2026-04-16 03:30 -43.47603 172.54588 39558 ft 282 kts 224°
2026-04-16 03:30 -43.49126 172.52896 39559 ft 281 kts 224°
2026-04-16 03:30 -43.50657 172.51231 39550 ft 281 kts 220°
2026-04-16 03:30 -43.52287 172.49739 39590 ft 281 kts 219°
2026-04-16 03:31 -43.53902 172.48228 39586 ft 281 kts 220°
2026-04-16 03:31 -43.55523 172.46705 39589 ft 282 kts 220°
2026-04-16 03:31 -43.57152 172.45187 39592 ft 283 kts 219°
2026-04-16 03:31 -43.58788 172.43668 39605 ft 284 kts 219°
2026-04-16 03:32 -43.60434 172.42130 39594 ft 287 kts 219°
2026-04-16 03:32 -43.62092 172.40581 39582 ft 288 kts 219°
2026-04-16 03:34 -43.73488 172.29916 39596 ft 284 kts 219°
2026-04-16 03:34 -43.75126 172.28378 39600 ft 285 kts 219°
2026-04-16 03:34 -43.76769 172.26836 39613 ft 286 kts 219°
2026-04-16 03:34 -43.78422 172.25282 39593 ft 288 kts 219°
2026-04-16 03:35 -43.80082 172.23721 39599 ft 289 kts 219°
2026-04-16 03:35 -43.81740 172.22161 39600 ft 288 kts 219°
2026-04-16 03:35 -43.83392 172.20607 39598 ft 287 kts 219°
2026-04-16 03:35 -43.85039 172.19054 39594 ft 286 kts 219°
2026-04-16 03:36 -43.86679 172.17508 39592 ft 285 kts 219°
2026-04-16 03:36 -43.88293 172.15984 39589 ft 284 kts 219°
2026-04-16 03:36 -43.89923 172.14445 39586 ft 283 kts 219°
2026-04-16 03:36 -43.91548 172.12910 39584 ft 282 kts 219°
2026-04-16 03:37 -43.93172 172.11373 39587 ft 283 kts 219°
2026-04-16 03:37 -43.94803 172.09830 39590 ft 284 kts 219°
2026-04-16 03:37 -43.96443 172.08277 39591 ft 287 kts 219°
2026-04-16 03:37 -43.98095 172.06712 39597 ft 288 kts 219°
2026-04-16 03:38 -43.99756 172.05138 39602 ft 290 kts 219°
2026-04-16 03:38 -44.01421 172.03557 39601 ft 290 kts 219°
2026-04-16 03:38 -44.03085 172.01980 39589 ft 287 kts 219°
2026-04-16 03:38 -44.04720 172.00427 39584 ft 282 kts 219°
2026-04-16 03:39 -44.06347 171.98924 39584 ft 280 kts 218°
2026-04-16 03:39 -44.07991 171.97465 39585 ft 281 kts 218°
2026-04-16 03:39 -44.09639 171.95991 39587 ft 282 kts 218°
2026-04-16 03:39 -44.11295 171.94510 39591 ft 284 kts 218°
2026-04-16 03:40 -44.12960 171.93022 39592 ft 285 kts 218°
2026-04-16 03:40 -44.14632 171.91527 39592 ft 288 kts 218°
2026-04-16 03:40 -44.16320 171.90017 39595 ft 289 kts 218°
2026-04-16 03:40 -44.18010 171.88504 39597 ft 288 kts 218°
2026-04-16 03:41 -44.19674 171.87014 39599 ft 288 kts 218°
2026-04-16 03:41 -44.21354 171.85507 39596 ft 287 kts 218°
2026-04-16 03:41 -44.23028 171.84004 39595 ft 286 kts 218°
2026-04-16 03:41 -44.24703 171.82502 39593 ft 286 kts 218°
2026-04-16 03:42 -44.26371 171.81001 39590 ft 285 kts 218°
2026-04-16 03:42 -44.28038 171.79504 39589 ft 285 kts 218°
2026-04-16 03:42 -44.29700 171.78007 39591 ft 284 kts 218°
2026-04-16 03:42 -44.31359 171.76514 39586 ft 284 kts 218°
2026-04-16 03:43 -44.33018 171.75019 39597 ft 284 kts 218°
2026-04-16 03:43 -44.34685 171.73514 39596 ft 286 kts 218°
2026-04-16 03:43 -44.36363 171.72000 39598 ft 288 kts 218°
2026-04-16 03:43 -44.38055 171.70473 39597 ft 290 kts 218°
2026-04-16 03:44 -44.39750 171.68942 39595 ft 290 kts 218°
2026-04-16 03:44 -44.41439 171.67417 39597 ft 288 kts 218°
2026-04-16 03:44 -44.43119 171.65896 39592 ft 287 kts 218°
2026-04-16 03:44 -44.44792 171.64382 39585 ft 285 kts 218°
2026-04-16 03:45 -44.46453 171.62876 39580 ft 283 kts 218°
2026-04-16 03:45 -44.48099 171.61384 39573 ft 281 kts 218°
2026-04-16 03:45 -44.49740 171.59895 39577 ft 281 kts 218°
2026-04-16 03:45 -44.51383 171.58402 39581 ft 282 kts 218°
2026-04-16 03:46 -44.53033 171.56903 39586 ft 283 kts 218°
2026-04-16 03:46 -44.54688 171.55398 39587 ft 284 kts 218°
2026-04-16 03:46 -44.56351 171.53886 39592 ft 285 kts 218°
2026-04-16 03:46 -44.58015 171.52370 39595 ft 286 kts 218°
2026-04-16 03:47 -44.59662 171.50870 39597 ft 287 kts 218°
2026-04-16 03:47 -44.61334 171.49347 39592 ft 286 kts 218°
2026-04-16 03:47 -44.62998 171.47828 39591 ft 285 kts 218°
2026-04-16 03:47 -44.64659 171.46313 39589 ft 284 kts 218°
2026-04-16 03:48 -44.66312 171.44802 39585 ft 283 kts 218°
2026-04-16 03:48 -44.67960 171.43296 39595 ft 282 kts 218°
2026-04-16 03:48 -44.69603 171.41793 39589 ft 282 kts 218°
2026-04-16 03:48 -44.71244 171.40289 39587 ft 282 kts 218°
2026-04-16 03:49 -44.72890 171.38781 39588 ft 283 kts 218°
2026-04-16 03:49 -44.74539 171.37269 39593 ft 284 kts 218°
2026-04-16 03:49 -44.76195 171.35751 39596 ft 284 kts 218°
2026-04-16 03:49 -44.77855 171.34226 39597 ft 285 kts 218°
2026-04-16 03:50 -44.79520 171.32698 39593 ft 286 kts 218°
2026-04-16 03:50 -44.81187 171.31165 39594 ft 287 kts 218°
2026-04-16 03:50 -44.82859 171.29627 39596 ft 287 kts 218°
2026-04-16 03:50 -44.84532 171.28088 39596 ft 286 kts 218°
2026-04-16 03:51 -44.86194 171.26556 39606 ft 285 kts 218°
2026-04-16 03:51 -44.87857 171.25023 39585 ft 285 kts 218°
2026-04-16 03:51 -44.89491 171.23516 39579 ft 284 kts 218°
2026-04-16 03:51 -44.91143 171.21991 39576 ft 283 kts 218°
2026-04-16 03:52 -44.92791 171.20469 39578 ft 283 kts 218°
2026-04-16 03:52 -44.94436 171.18947 39587 ft 283 kts 218°
2026-04-16 03:52 -44.96084 171.17422 39588 ft 283 kts 218°
2026-04-16 03:52 -44.97732 171.15898 39590 ft 284 kts 218°
2026-04-16 03:53 -44.99382 171.14369 39587 ft 284 kts 218°
2026-04-16 03:53 -45.01036 171.12835 39585 ft 284 kts 218°
2026-04-16 03:53 -45.02689 171.11302 39590 ft 284 kts 218°
2026-04-16 03:53 -45.04343 171.09766 39606 ft 285 kts 218°
2026-04-16 03:54 -45.06003 171.08225 39585 ft 285 kts 218°
2026-04-16 03:54 -45.07652 171.06692 39583 ft 283 kts 218°
2026-04-16 03:54 -45.09293 171.05166 39578 ft 281 kts 218°
2026-04-16 03:54 -45.10923 171.03649 39574 ft 280 kts 218°
2026-04-16 03:55 -45.12548 171.02133 39575 ft 280 kts 218°
2026-04-16 03:55 -45.14179 171.00613 39578 ft 281 kts 218°
2026-04-16 03:55 -45.15814 170.99087 39578 ft 282 kts 218°
2026-04-16 03:55 -45.17455 170.97556 39582 ft 283 kts 218°
2026-04-16 03:56 -45.19098 170.96021 39579 ft 283 kts 218°
2026-04-16 03:56 -45.20747 170.94480 39582 ft 284 kts 218°
2026-04-16 03:56 -45.22380 170.92953 39592 ft 285 kts 218°
2026-04-16 03:56 -45.24038 170.91399 39585 ft 286 kts 218°
2026-04-16 03:57 -45.25697 170.89847 39589 ft 286 kts 218°
2026-04-16 03:57 -45.27356 170.88291 39589 ft 285 kts 218°
2026-04-16 03:57 -45.29037 170.86797 39587 ft 286 kts 215°
2026-04-16 03:57 -45.30759 170.85403 39584 ft 285 kts 216°
2026-04-16 03:58 -45.32468 170.83986 39584 ft 284 kts 216°
2026-04-16 03:58 -45.34172 170.82575 39581 ft 283 kts 216°
2026-04-16 03:58 -45.35876 170.81171 39581 ft 283 kts 216°
2026-04-16 03:58 -45.37577 170.79770 39578 ft 282 kts 216°
2026-04-16 03:59 -45.39272 170.78371 39577 ft 282 kts 216°
2026-04-16 03:59 -45.40970 170.76967 39587 ft 283 kts 216°
2026-04-16 03:59 -45.42678 170.75553 39587 ft 286 kts 216°
2026-04-16 03:59 -45.44407 170.74122 39588 ft 289 kts 216°
2026-04-16 04:00 -45.46152 170.72678 39589 ft 290 kts 216°
2026-04-16 04:00 -45.47891 170.71241 39590 ft 288 kts 216°
2026-04-16 04:00 -45.49613 170.69813 39585 ft 286 kts 216°
2026-04-16 04:00 -45.51325 170.68392 39579 ft 284 kts 216°
2026-04-16 04:01 -45.53027 170.66977 39574 ft 284 kts 216°
2026-04-16 04:01 -45.54714 170.65573 39574 ft 285 kts 216°
2026-04-16 04:01 -45.56431 170.64145 39579 ft 286 kts 216°
2026-04-16 04:01 -45.58156 170.62710 39584 ft 288 kts 216°
2026-04-16 04:02 -45.59898 170.61259 39585 ft 291 kts 216°
2026-04-16 04:02 -45.61638 170.59811 39590 ft 288 kts 216°
2026-04-16 04:02 -45.63365 170.58373 39565 ft 286 kts 216°
2026-04-16 04:02 -45.65070 170.56948 39577 ft 282 kts 216°
2026-04-16 04:03 -45.66756 170.55539 39572 ft 280 kts 216°
2026-04-16 04:03 -45.68442 170.54129 39572 ft 281 kts 216°
2026-04-16 04:03 -45.70175 170.52811 39579 ft 285 kts 211°
2026-04-16 04:03 -45.71970 170.51597 39578 ft 286 kts 212°
2026-04-16 04:04 -45.73763 170.50344 39583 ft 287 kts 212°
2026-04-16 04:04 -45.75566 170.49088 39583 ft 289 kts 212°
2026-04-16 04:04 -45.77375 170.47840 39590 ft 288 kts 212°
2026-04-16 04:04 -45.79180 170.46595 39570 ft 287 kts 212°
2026-04-16 04:05 -45.80977 170.45349 39567 ft 287 kts 212°
2026-04-16 04:05 -45.82504 170.43661 39569 ft 275 kts 237°
2026-04-16 04:05 -45.83394 170.41248 39578 ft 275 kts 245°
2026-04-16 04:05 -45.84181 170.38725 39571 ft 279 kts 244°
2026-04-16 04:06 -45.85095 170.36264 39569 ft 280 kts 239°
2026-04-16 04:06 -45.86188 170.33959 39566 ft 279 kts 235°
2026-04-16 04:06 -45.87319 170.31705 39563 ft 278 kts 236°
2026-04-16 04:06 -45.88386 170.29449 39586 ft 276 kts 237°
2026-04-16 04:07 -45.89445 170.27154 39582 ft 275 kts 237°
2026-04-16 04:07 -45.91575 170.22607 39577 ft 275 kts 237°
2026-04-16 04:07 -45.92646 170.20325 39578 ft 276 kts 237°
2026-04-16 04:08 -45.93716 170.18036 39579 ft 277 kts 237°
2026-04-16 04:08 -45.94791 170.15737 39592 ft 277 kts 237°
2026-04-16 04:08 -45.95870 170.13426 39590 ft 279 kts 237°
2026-04-16 04:08 -45.96956 170.11098 39593 ft 282 kts 237°
2026-04-16 04:09 -45.98050 170.08754 39593 ft 283 kts 237°
2026-04-16 04:09 -45.99146 170.06402 39570 ft 283 kts 237°
2026-04-16 04:09 -46.00236 170.04060 39578 ft 281 kts 237°
2026-04-16 04:09 -46.01322 170.01726 39576 ft 280 kts 237°
2026-04-16 04:10 -46.02404 169.99398 39581 ft 280 kts 237°
2026-04-16 04:10 -46.03483 169.97074 39578 ft 279 kts 237°
2026-04-16 04:10 -46.04559 169.94755 39590 ft 278 kts 237°
2026-04-16 04:10 -46.05633 169.92437 39588 ft 278 kts 237°
2026-04-16 04:11 -46.06707 169.90120 39588 ft 278 kts 237°
2026-04-16 04:11 -46.07769 169.87826 39591 ft 280 kts 237°
2026-04-16 04:11 -46.08848 169.85492 39597 ft 281 kts 237°
2026-04-16 04:11 -46.09933 169.83144 39603 ft 282 kts 237°
2026-04-16 04:12 -46.11021 169.80787 39609 ft 283 kts 237°
2026-04-16 04:12 -46.12113 169.78420 39608 ft 284 kts 237°
2026-04-16 04:12 -46.13207 169.76047 39620 ft 284 kts 237°
2026-04-16 04:12 -46.14297 169.73681 39620 ft 283 kts 237°
2026-04-16 04:13 -46.15383 169.71321 39617 ft 282 kts 237°
2026-04-16 04:13 -46.16465 169.68967 39614 ft 281 kts 237°
2026-04-16 04:13 -46.17544 169.66620 39611 ft 280 kts 237°
2026-04-16 04:13 -46.18617 169.64280 39603 ft 279 kts 237°
2026-04-16 04:14 -46.19688 169.61944 39604 ft 279 kts 237°
2026-04-16 04:14 -46.20746 169.59635 39603 ft 280 kts 237°
2026-04-16 04:14 -46.21818 169.57294 39599 ft 280 kts 237°
2026-04-16 04:14 -46.22891 169.54950 39618 ft 279 kts 237°
2026-04-16 04:15 -46.23961 169.52608 39621 ft 280 kts 237°
2026-04-16 04:15 -46.25033 169.50261 39619 ft 280 kts 237°
2026-04-16 04:15 -46.26106 169.47908 39620 ft 280 kts 237°
2026-04-16 04:15 -46.27178 169.45560 39620 ft 280 kts 238°
2026-04-16 04:16 -46.28248 169.43210 39625 ft 280 kts 237°
2026-04-16 04:16 -46.29318 169.40859 39624 ft 280 kts 237°
2026-04-16 04:16 -46.30386 169.38511 39627 ft 279 kts 237°
2026-04-16 04:16 -46.31451 169.36166 39626 ft 279 kts 238°
2026-04-16 04:17 -46.32514 169.33827 39617 ft 278 kts 238°
2026-04-16 04:17 -46.33572 169.31492 39618 ft 278 kts 238°
2026-04-16 04:17 -46.34632 169.29154 39616 ft 277 kts 238°
2026-04-16 04:17 -46.35689 169.26822 39614 ft 277 kts 238°
2026-04-16 04:18 -46.36744 169.24490 39617 ft 277 kts 238°
2026-04-16 04:18 -46.37797 169.22160 39617 ft 276 kts 238°
2026-04-16 04:18 -46.38850 169.19829 39616 ft 276 kts 238°
2026-04-16 04:18 -46.39902 169.17499 39625 ft 276 kts 238°
2026-04-16 04:19 -46.40939 169.15200 39627 ft 276 kts 238°
2026-04-16 04:19 -46.42002 169.12841 39626 ft 276 kts 238°
2026-04-16 04:19 -46.43037 169.10542 39626 ft 276 kts 238°
2026-04-16 04:19 -46.44083 169.08217 39616 ft 275 kts 238°
2026-04-16 04:20 -46.45126 169.05895 39633 ft 275 kts 238°
2026-04-16 04:20 -46.46176 169.03559 39627 ft 277 kts 238°
2026-04-16 04:20 -46.47230 169.01207 39633 ft 279 kts 238°
2026-04-16 04:20 -46.48295 168.98834 39640 ft 282 kts 238°
2026-04-16 04:21 -46.49363 168.96452 39638 ft 281 kts 238°
2026-04-16 04:21 -46.50429 168.94069 39634 ft 281 kts 238°
2026-04-16 04:21 -46.51491 168.91694 39633 ft 280 kts 238°
2026-04-16 04:21 -46.52551 168.89321 39628 ft 279 kts 238°
2026-04-16 04:22 -46.53606 168.86958 39623 ft 279 kts 238°
2026-04-16 04:22 -46.54660 168.84597 39622 ft 278 kts 238°
2026-04-16 04:22 -46.55710 168.82241 39619 ft 277 kts 238°
2026-04-16 04:22 -46.56756 168.79890 39618 ft 277 kts 238°
2026-04-16 04:23 -46.57801 168.77542 39624 ft 276 kts 238°
2026-04-16 04:23 -46.58843 168.75200 39617 ft 276 kts 238°
2026-04-16 04:23 -46.59886 168.72851 39621 ft 277 kts 238°
2026-04-16 04:23 -46.60932 168.70494 39623 ft 278 kts 238°
2026-04-16 04:24 -46.61626 168.68928 39626 ft 279 kts 238°
2026-04-16 04:24 -46.62680 168.66551 39629 ft 281 kts 238°
2026-04-16 04:24 -46.63738 168.64161 39635 ft 281 kts 238°
2026-04-16 04:24 -46.64800 168.61761 39634 ft 282 kts 238°
2026-04-16 04:25 -46.65863 168.59357 39634 ft 282 kts 238°
2026-04-16 04:25 -46.66918 168.56968 39623 ft 278 kts 238°
2026-04-16 04:25 -46.67957 168.54614 39617 ft 275 kts 238°
2026-04-16 04:25 -46.68983 168.52287 39616 ft 273 kts 238°
2026-04-16 04:26 -46.70009 168.49957 39619 ft 274 kts 238°
2026-04-16 04:26 -46.71039 168.47615 39621 ft 275 kts 238°
2026-04-16 04:26 -46.72075 168.45261 39620 ft 276 kts 238°
2026-04-16 04:26 -46.73114 168.42896 39624 ft 278 kts 238°
2026-04-16 04:27 -46.74157 168.40522 39630 ft 279 kts 238°
2026-04-16 04:27 -46.75201 168.38141 39639 ft 279 kts 238°
2026-04-16 04:27 -46.76245 168.35761 39638 ft 278 kts 238°
2026-04-16 04:27 -46.77281 168.33394 39636 ft 277 kts 238°
2026-04-16 04:28 -46.78316 168.31029 39633 ft 276 kts 238°
2026-04-16 04:28 -46.79347 168.28669 39627 ft 276 kts 238°
2026-04-16 04:28 -46.80377 168.26312 39628 ft 275 kts 238°
2026-04-16 04:28 -46.81404 168.23958 39626 ft 274 kts 238°
2026-04-16 04:29 -46.82428 168.21610 39621 ft 274 kts 238°
2026-04-16 04:29 -46.83449 168.19267 39620 ft 274 kts 238°
2026-04-16 04:29 -46.84458 168.16947 39627 ft 275 kts 238°
2026-04-16 04:29 -46.85486 168.14586 39624 ft 276 kts 238°
2026-04-16 04:30 -46.86515 168.12219 39628 ft 277 kts 238°
2026-04-16 04:30 -46.87547 168.09839 39630 ft 277 kts 238°
2026-04-16 04:30 -46.88582 168.07455 39633 ft 278 kts 238°
2026-04-16 04:30 -46.89620 168.05061 39630 ft 279 kts 238°
2026-04-16 04:31 -46.90659 168.02661 39633 ft 279 kts 238°
2026-04-16 04:31 -46.91694 168.00271 39631 ft 278 kts 238°
2026-04-16 04:31 -46.92723 167.97889 39631 ft 276 kts 238°
2026-04-16 04:31 -46.93748 167.95515 39628 ft 276 kts 238°
2026-04-16 04:32 -46.94768 167.93151 39627 ft 275 kts 238°
2026-04-16 04:32 -46.95788 167.90789 39636 ft 274 kts 238°
2026-04-16 04:32 -46.96807 167.88422 39634 ft 276 kts 238°
2026-04-16 04:32 -46.97836 167.86030 39640 ft 279 kts 238°
2026-04-16 04:33 -46.98874 167.83615 39636 ft 281 kts 238°
2026-04-16 04:33 -46.99915 167.81197 39637 ft 280 kts 238°
2026-04-16 04:33 -47.00949 167.78788 39636 ft 279 kts 238°
2026-04-16 04:33 -47.01979 167.76385 39632 ft 278 kts 238°
2026-04-16 04:34 -47.03005 167.73994 39626 ft 277 kts 238°
2026-04-16 04:34 -47.04026 167.71609 39624 ft 276 kts 239°